• In Hungary
  • List of Countries
  • For 7 days
  • Water Temperature
  • Satellite Maps
  • Weather Map
  • News
  • Weather Widgets
  • user-avatar
    Login

    Hourly Weather Szparki

    Today, 24 June, Sunday

    Time Temperature Precipitation Wind Pressure Humidity
    00:00 +8°C° 0 mm 2 mps 748 mmHg 93%
    01:00 +8°C° 0 mm 2 mps 748 mmHg 94%
    02:00 +8°C° 0 mm 2 mps 748 mmHg 93%
    03:00 +8°C° 0 mm 2 mps 748 mmHg 93%
    04:00 +8°C° 0 mm 2 mps 747 mmHg 93%
    05:00 +9°C° 0.3 mm 2 mps 747 mmHg 89%
    06:00 +10°C° 0.3 mm 3 mps 747 mmHg 86%
    07:00 +12°C° 0 mm 3 mps 747 mmHg 82%
    08:00 +13°C° 0.4 mm 3 mps 747 mmHg 78%
    09:00 +13°C° 0.4 mm 3 mps 747 mmHg 74%
    10:00 +14°C° 0.4 mm 3 mps 747 mmHg 71%
    11:00 +16°C° 0.4 mm 3 mps 747 mmHg 69%
    12:00 +17°C° 0.4 mm 3 mps 747 mmHg 67%
    13:00 +17°C° 0.4 mm 3 mps 747 mmHg 65%
    14:00 +17°C° 0.5 mm 3 mps 747 mmHg 66%
    15:00 +17°C° 0.5 mm 3 mps 747 mmHg 68%
    16:00 +17°C° 0.5 mm 3 mps 747 mmHg 70%
    17:00 +16°C° 0.2 mm 3 mps 747 mmHg 74%
    18:00 +14°C° 0.2 mm 3 mps 748 mmHg 78%
    19:00 +14°C° 0.2 mm 2 mps 748 mmHg 83%
    20:00 +13°C° 0 mm 2 mps 748 mmHg 86%
    21:00 +12°C° 0 mm 2 mps 748 mmHg 90%
    22:00 +10°C° 0 mm 2 mps 749 mmHg 93%
    23:00 +9°C° 0.1 mm 2 mps 749 mmHg 94%

    Tomorrow, 25 June, Monday

    Time Temperature Precipitation Wind Pressure Humidity
    00:00 +9°C° 0.1 mm 2 mps 749 mmHg 95%
    01:00 +9°C° 0.1 mm 2 mps 749 mmHg 96%
    02:00 +9°C° 0.1 mm 2 mps 749 mmHg 96%
    03:00 +9°C° 0.1 mm 2 mps 749 mmHg 96%
    04:00 +9°C° 0.1 mm 2 mps 749 mmHg 95%
    05:00 +10°C° 0.4 mm 3 mps 750 mmHg 94%
    06:00 +11°C° 0.4 mm 3 mps 750 mmHg 93%
    07:00 +11°C° 0.4 mm 4 mps 750 mmHg 91%
    08:00 +12°C° 0.3 mm 4 mps 750 mmHg 89%
    09:00 +13°C° 0.3 mm 4 mps 750 mmHg 87%
    10:00 +14°C° 0.3 mm 5 mps 751 mmHg 85%
    11:00 +14°C° 0.4 mm 5 mps 751 mmHg 83%
    12:00 +15°C° 0.4 mm 4 mps 751 mmHg 80%
    13:00 +15°C° 0.4 mm 4 mps 751 mmHg 77%
    14:00 +17°C° 0.3 mm 4 mps 751 mmHg 77%
    15:00 +17°C° 0.3 mm 4 mps 751 mmHg 76%
    16:00 +17°C° 0.3 mm 3 mps 751 mmHg 75%
    17:00 +16°C° 0.3 mm 3 mps 751 mmHg 79%
    18:00 +16°C° 0.3 mm 3 mps 751 mmHg 82%
    19:00 +15°C° 0.3 mm 2 mps 751 mmHg 86%
    20:00 +14°C° 0.2 mm 2 mps 751 mmHg 88%
    21:00 +14°C° 0.2 mm 2 mps 751 mmHg 89%
    22:00 +13°C° 0.2 mm 2 mps 751 mmHg 91%
    23:00 +13°C° 0.2 mm 2 mps 751 mmHg 91%

    Day after tomorrow, 26 June, Tuesday

    Time Temperature Precipitation Wind Pressure Humidity
    00:00 +13°C° 0.2 mm 2 mps 751 mmHg 91%
    01:00 +12°C° 0.2 mm 3 mps 751 mmHg 92%
    02:00 +12°C° 0.2 mm 3 mps 751 mmHg 92%
    03:00 +12°C° 0.2 mm 3 mps 751 mmHg 92%
    04:00 +12°C° 0.2 mm 3 mps 751 mmHg 93%
    05:00 +12°C° 0.2 mm 3 mps 751 mmHg 91%
    06:00 +13°C° 0.2 mm 3 mps 751 mmHg 89%
    07:00 +14°C° 0.2 mm 3 mps 751 mmHg 88%
    08:00 +16°C° 0.7 mm 3 mps 751 mmHg 84%
    09:00 +17°C° 0.7 mm 3 mps 751 mmHg 80%
    10:00 +18°C° 0.7 mm 3 mps 751 mmHg 76%
    11:00 +18°C° 1 mm 3 mps 751 mmHg 75%
    12:00 +19°C° 1 mm 3 mps 751 mmHg 74%
    13:00 +19°C° 1 mm 3 mps 751 mmHg 73%
    14:00 +19°C° 0.9 mm 3 mps 751 mmHg 73%
    15:00 +19°C° 0.9 mm 3 mps 751 mmHg 73%
    16:00 +19°C° 0.9 mm 2 mps 751 mmHg 73%
    17:00 +18°C° 0.7 mm 3 mps 751 mmHg 78%
    18:00 +17°C° 0.7 mm 3 mps 751 mmHg 83%
    19:00 +16°C° 0.7 mm 3 mps 751 mmHg 88%
    20:00 +14°C° 0.1 mm 3 mps 752 mmHg 91%
    21:00 +14°C° 0.1 mm 2 mps 752 mmHg 93%
    22:00 +13°C° 0.1 mm 2 mps 752 mmHg 95%
    23:00 +13°C° 0 mm 2 mps 752 mmHg 95%

    27 June, Wednesday

    Time Temperature Precipitation Wind Pressure Humidity
    00:00 +13°C° 0 mm 2 mps 752 mmHg 95%
    01:00 +12°C° 0 mm 2 mps 752 mmHg 96%
    02:00 +12°C° 0.1 mm 2 mps 752 mmHg 96%
    03:00 +12°C° 0.1 mm 2 mps 752 mmHg 96%
    04:00 +12°C° 0.1 mm 2 mps 752 mmHg 96%
    05:00 +12°C° 0 mm 3 mps 753 mmHg 92%
    06:00 +14°C° 0 mm 3 mps 753 mmHg 88%
    07:00 +17°C° 0 mm 3 mps 753 mmHg 85%
    08:00 +18°C° 0.1 mm 3 mps 753 mmHg 77%
    09:00 +20°C° 0.1 mm 4 mps 753 mmHg 70%
    10:00 +22°C° 0.1 mm 4 mps 754 mmHg 63%
    11:00 +22°C° 0.4 mm 4 mps 754 mmHg 64%
    12:00 +22°C° 0.4 mm 4 mps 753 mmHg 64%
    13:00 +23°C° 0.4 mm 4 mps 753 mmHg 65%
    14:00 +22°C° 0.5 mm 4 mps 753 mmHg 68%
    15:00 +22°C° 0.5 mm 4 mps 754 mmHg 71%
    16:00 +22°C° 0.5 mm 4 mps 754 mmHg 75%
    17:00 +21°C° 0.3 mm 4 mps 754 mmHg 79%
    18:00 +20°C° 0.3 mm 3 mps 753 mmHg 84%
    19:00 +19°C° 0.3 mm 3 mps 753 mmHg 88%
    20:00 +18°C° 0.1 mm 3 mps 753 mmHg 90%
    21:00 +18°C° 0.1 mm 3 mps 753 mmHg 92%
    22:00 +17°C° 0.1 mm 3 mps 753 mmHg 93%
    23:00 +17°C° 0 mm 3 mps 753 mmHg 94%

    28 June, Thursday

    Time Temperature Precipitation Wind Pressure Humidity
    00:00 +15°C° 0 mm 4 mps 753 mmHg 94%
    01:00 +15°C° 0 mm 4 mps 752 mmHg 94%
    02:00 +15°C° 0 mm 4 mps 752 mmHg 94%
    03:00 +15°C° 0 mm 4 mps 752 mmHg 94%
    04:00 +15°C° 0 mm 5 mps 751 mmHg 94%
    05:00 +17°C° 0 mm 5 mps 751 mmHg 89%
    06:00 +19°C° 0 mm 6 mps 750 mmHg 84%
    07:00 +21°C° 0 mm 7 mps 750 mmHg 78%
    08:00 +22°C° 0 mm 7 mps 750 mmHg 74%
    09:00 +24°C° 0 mm 8 mps 749 mmHg 69%
    10:00 +26°C° 0 mm 9 mps 749 mmHg 64%
    11:00 +24°C° 0.5 mm 8 mps 748 mmHg 71%
    12:00 +23°C° 0.5 mm 8 mps 748 mmHg 78%
    13:00 +22°C° 0.5 mm 8 mps 747 mmHg 84%
    14:00 +23°C° 0.3 mm 8 mps 747 mmHg 82%
    15:00 +24°C° 0.3 mm 8 mps 746 mmHg 80%
    16:00 +24°C° 0.3 mm 7 mps 745 mmHg 78%
    17:00 +24°C° 0.3 mm 7 mps 745 mmHg 80%
    18:00 +23°C° 0.3 mm 6 mps 745 mmHg 83%
    19:00 +22°C° 0.3 mm 5 mps 744 mmHg 86%
    20:00 +22°C° 0.1 mm 5 mps 744 mmHg 89%
    21:00 +21°C° 0.1 mm 4 mps 744 mmHg 92%
    22:00 +21°C° 0.1 mm 4 mps 744 mmHg 95%
    23:00 +20°C° 0 mm 3 mps 743 mmHg 96%

    29 June, Friday

    Time Temperature Precipitation Wind Pressure Humidity
    00:00 +20°C° 0 mm 3 mps 743 mmHg 96%
    01:00 +19°C° 0 mm 2 mps 743 mmHg 97%
    02:00 +18°C° 0 mm 2 mps 743 mmHg 97%
    03:00 +18°C° 0 mm 2 mps 743 mmHg 97%
    04:00 +17°C° 0 mm 2 mps 743 mmHg 96%
    05:00 +18°C° 0 mm 2 mps 743 mmHg 90%
    06:00 +19°C° 0 mm 2 mps 743 mmHg 84%
    07:00 +20°C° 0 mm 2 mps 743 mmHg 78%
    08:00 +22°C° 0 mm 3 mps 743 mmHg 72%
    09:00 +24°C° 0 mm 3 mps 743 mmHg 66%
    10:00 +25°C° 0 mm 3 mps 743 mmHg 60%
    11:00 +26°C° 0 mm 3 mps 743 mmHg 56%
    12:00 +27°C° 0 mm 3 mps 743 mmHg 52%
    13:00 +28°C° 0 mm 3 mps 742 mmHg 48%
    14:00 +28°C° 0 mm 3 mps 742 mmHg 48%
    15:00 +28°C° 0 mm 2 mps 742 mmHg 48%
    16:00 +28°C° 0 mm 2 mps 742 mmHg 48%
    17:00 +27°C° 0 mm 2 mps 742 mmHg 53%
    18:00 +26°C° 0 mm 1 mps 742 mmHg 59%
    19:00 +24°C° 0 mm 1 mps 742 mmHg 64%
    20:00 +23°C° 0 mm 1 mps 741 mmHg 67%
    21:00 +22°C° 0 mm 1 mps 741 mmHg 70%
    22:00 +20°C° 0 mm 1 mps 741 mmHg 73%
    23:00 +20°C° 0 mm 1 mps 741 mmHg 76%
    Show more